VTK601 UZTT-UTAA

Flight info

Callsign VTK601
Flight time N/A
Altitude 40000
Route KUFIM2C KUFIM L143 POGON/N0477F400 B114 BUROT BUR29A
Aircraft MD11/H-SDE1E2E3FGHIJ2J3J4J5M1RWXY/LB1D1

Departure

Time 2026-04-16 05:23
Airport Tashkent International Airport (UZTT)

Arrival

Time N/A
Airport Ashgabat International Airport (UTAA)
Time Latitude Longitude Altitude Speed Heading
2026-04-16 05:08 41.26222 69.27642 1378 ft 0 kts 261°
2026-04-16 05:16 41.26226 69.27677 1413 ft 4 kts 261°
2026-04-16 05:16 41.26235 69.27711 1405 ft 4 kts 211°
2026-04-16 05:16 41.26250 69.27717 1405 ft 0 kts 176°
2026-04-16 05:18 41.26245 69.27718 1405 ft 3 kts 176°
2026-04-16 05:18 41.26193 69.27723 1413 ft 9 kts 173°
2026-04-16 05:18 41.26140 69.27749 1408 ft 7 kts 136°
2026-04-16 05:18 41.26129 69.27802 1413 ft 6 kts 87°
2026-04-16 05:19 41.26133 69.27861 1407 ft 9 kts 82°
2026-04-16 05:19 41.26147 69.27987 1409 ft 18 kts 81°
2026-04-16 05:19 41.26167 69.28156 1412 ft 18 kts 81°
2026-04-16 05:19 41.26185 69.28317 1413 ft 17 kts 82°
2026-04-16 05:20 41.26189 69.28465 1408 ft 16 kts 91°
2026-04-16 05:20 41.26183 69.28617 1414 ft 18 kts 93°
2026-04-16 05:20 41.26183 69.28782 1417 ft 18 kts 88°
2026-04-16 05:20 41.26189 69.28952 1411 ft 19 kts 87°
2026-04-16 05:21 41.26196 69.29127 1418 ft 19 kts 86°
2026-04-16 05:21 41.26202 69.29301 1417 ft 19 kts 88°
2026-04-16 05:21 41.26209 69.29479 1416 ft 20 kts 87°
2026-04-16 05:21 41.26215 69.29660 1417 ft 20 kts 87°
2026-04-16 05:22 41.26222 69.29843 1421 ft 20 kts 87°
2026-04-16 05:22 41.26197 69.30011 1416 ft 18 kts 136°
2026-04-16 05:22 41.26105 69.30105 1416 ft 9 kts 152°
2026-04-16 05:22 41.26076 69.30103 1414 ft 4 kts 201°
2026-04-16 05:23 41.26061 69.30054 1415 ft 9 kts 258°
2026-04-16 05:23 41.26027 69.29757 1414 ft 80 kts 261°
2026-04-16 05:23 41.25896 69.28592 1406 ft 170 kts 262°
2026-04-16 05:23 41.25733 69.26928 2109 ft 187 kts 260°
2026-04-16 05:24 41.25532 69.25203 3203 ft 189 kts 260°
2026-04-16 05:24 41.25328 69.23494 4322 ft 186 kts 262°
2026-04-16 05:24 41.25129 69.21745 5061 ft 208 kts 262°
2026-04-16 05:24 41.24904 69.19689 5234 ft 240 kts 262°
2026-04-16 05:25 41.24646 69.17420 5652 ft 258 kts 261°
2026-04-16 05:25 41.24379 69.15051 6614 ft 261 kts 261°